Location: Burren
(48.9083°N, 9.8794°E)
Time: 11:16:20
(UTC+00:00)

Daily predictions for brighter satellites

Satellite Brightness Start Highest point End
(mag) Time Altitude Azimuth Time Altitude Azimuth Time Altitude Azimuth
Cosmos 2181 Rocket 4.0 18:40:07 10° S 18:46:17 76° E 18:52:36 10° NNE
CZ-4C R/B 3.9 18:43:04 10° NW 18:48:52 33° NNE 18:55:52 10° E
Cosmos 1992 Rocket 4.0 18:43:45 10° S 18:48:54 66° ESE 18:54:06 10° NNE
MOS 1-B 4.4 18:43:21 10° SSE 18:49:07 70° ENE 18:54:54 10° NNW
SPOT 5 4.3 18:47:54 10° ESE 18:52:08 25° ENE 18:56:19 10° N
Cosmos 2297 Rocket 3.3 18:48:33 10° NNW 18:53:27 29° NE 18:58:21 10° ESE
Cosmos 2369 Rocket 3.4 18:51:59 10° SW 18:57:28 49° NW 19:02:58 10° NNE
Meteor 1-11 4.3 18:54:37 10° N 19:00:19 82° ENE 19:06:03 10° SSE
BlueWalker 3 3.1 18:58:04 10° S 19:01:08 23° SE 19:04:14 10° E
Terra 3.6 19:01:55 10° E 19:04:52 17° ENE 19:07:51 10° NNE
ATLAS 5 CENTAUR R/B 0.9 19:02:10 10° SW 19:05:30 81° SE 19:09:14 10° NE
PSLV R/B 3.6 19:04:13 10° SSE 19:07:55 81° ENE 19:11:44 10° NNW
Cosmos 2098 Rocket 2.9 19:03:25 10° S 19:08:10 82° E 19:12:02 10° N
CARTOSAT-1 3.5 19:04:24 10° SSE 19:08:38 73° ENE 19:12:55 10° N
Cosmos 1455 3.9 19:07:13 10° SW 19:10:31 35° WNW 19:13:50 10° N
Sich 1 Rocket 4.3 19:06:37 10° SSE 19:10:35 33° E 19:14:36 10° NNE
Okean 1 Rocket 4.4 19:07:16 10° SE 19:10:42 22° E 19:14:07 10° NE
Cosmos 1932 4.5 19:09:17 10° NW 19:15:35 83° NE 19:21:31 11° SE
Okean-O 2.9 19:11:26 10° SE 19:15:41 50° ENE 19:19:58 10° N
Cosmos 1975 Rocket 3.9 19:11:29 10° NNW 19:15:42 52° W 19:19:53 10° S
CZ-4B R/B 3.8 19:12:16 10° S 19:17:51 63° WSW 19:23:23 10° NNW
Cosmos 2263 Rocket 4.3 19:16:27 10° N 19:19:32 15° NNE 19:22:35 10° ENE
Ariane Rocket 4.4 19:16:22 12° ESE 19:19:48 22° ENE 19:23:39 10° N
CZ-4C R/B 3.6 19:18:15 10° NNE 19:21:24 33° E 19:24:29 10° SSE
Nadezhda 3 Rocket 4.0 19:16:23 10° S 19:22:28 68° E 19:28:37 10° NNE
Cosmos 1821 Rocket 4.2 19:17:04 10° NNW 19:23:15 76° W 19:29:19 10° S
SL-27 R/B 3.6 19:21:31 10° NW 19:24:09 31° WSW 19:26:44 10° S
Genesis I 3.2 19:20:43 10° NNW 19:24:19 59° NE 19:26:55 17° SE
USA 186 3.1 19:21:35 10° SSW 19:24:25 36° W 19:27:14 10° NNW
Cosmos 44 4.5 19:20:49 10° SSE 19:25:11 25° ESE 19:29:31 10° ENE
BREEZE-M R/B 1.6 19:23:31 10° W 19:26:07 88° SW 19:27:39 20° ESE
USA 267 3.4 19:19:52 10° NE 19:26:27 79° NNW 19:32:59 10° WSW
Okean O Rocket 2.0 19:26:11 10° S 19:30:29 64° WSW 19:34:52 10° NNW
Aureole 1 Rocket 4.5 19:32:11 10° NNE 19:33:31 12° NE 19:34:29 11° ENE
Cosmos 1486 Rocket 4.4 19:30:01 10° NNW 19:35:11 62° WSW 19:40:17 10° S
CZ-4 R/B 3.7 19:32:38 10° SSW 19:35:46 23° W 19:38:54 10° NW
Cosmos 1536 Rocket 3.5 19:37:25 10° N 19:41:52 81° E 19:45:50 13° SSE
SJ 16-02 4.2 19:40:48 10° WNW 19:42:49 13° W 19:44:49 10° WSW
Resurs 01 Rocket 2.7 19:41:06 10° S 19:45:19 44° W 19:49:36 10° NNW
IRS-1C Rocket 4.2 19:42:38 16° SSE 19:46:48 65° ENE 19:52:02 10° N
MOS 1 4.3 19:43:34 12° SSE 19:48:55 86° ENE 19:54:39 10° NNW
CENTAUR R/B 4.0 19:42:51 10° NW 19:50:09 42° NNE 19:57:39 13° E
NOSS 3-1 (A) 3.1 19:47:02 10° SW 19:52:02 87° NW 19:58:09 10° NE
ERS-1 Rocket 3.3 19:51:26 22° SE 19:54:25 49° ENE 19:59:15 10° N
SPOT 3 Rocket 4.2 19:55:09 23° ESE 19:57:51 39° ENE 20:02:40 10° N
Tiangong 0.1 19:56:28 10° SSW 19:57:18 14° SSW 19:57:18 14° SSW
Cosmos 1934 Rocket 4.0 19:54:33 10° N 20:00:45 88° WSW 20:06:25 13° S
USA 229 DEB 3.7 19:55:09 10° SSW 20:00:58 47° ESE 20:07:20 10° NE
USA 229 3.7 19:55:15 10° SSW 20:01:04 47° ESE 20:07:26 10° NE
Cosmos 2151 Rocket 3.8 19:58:22 10° SSW 20:02:45 71° W 20:07:12 10° N
Cosmos 1339 Rocket 4.4 19:56:38 10° S 20:02:47 83° E 20:08:53 10° N
USA 234 4.0 19:58:35 15° SSE 20:03:38 42° SW 20:09:48 10° WNW
USA 281 3.6 19:59:02 12° SSE 20:05:06 62° WSW 20:11:38 10° NNW
ATLAS CENTAUR R/B 2.5 20:05:12 10° NNW 20:08:32 29° NE 20:09:58 23° ENE
Cosmos 2227 Rocket 2.6 20:03:58 10° NNW 20:09:31 51° NE 20:12:21 27° ESE
Cosmos 1980 Rocket 3.9 20:13:32 15° E 20:13:32 15° E 20:15:48 10° ENE
Iridium 2 3.8 20:10:08 10° NNW 20:13:01 50° W 20:14:17 27° SSW
Cosmos 1892 Rocket 3.7 20:12:34 10° N 20:16:50 55° ENE 20:18:10 38° SE
SL-4 R/B 1.5 20:13:30 10° WNW 20:17:06 79° NNE 20:17:57 48° E
Cosmos 371 Rocket 4.3 20:13:09 10° NW 20:17:40 42° WSW 20:21:07 16° S
Landsat 4 3.5 20:17:01 38° S 20:18:14 78° WSW 20:21:46 10° NNW
MetOp-B 4.3 20:15:38 19° S 20:19:33 69° WSW 20:24:55 10° NNW
Cosmos 1697 Rocket 3.2 20:18:57 30° SE 20:20:45 38° ESE 20:25:57 10° NE
Cosmos 2360 4.3 20:17:18 15° S 20:21:51 51° ESE 20:27:22 10° NE
Okean 2 Rocket 4.1 20:20:33 10° SSW 20:24:53 46° WNW 20:29:14 10° N
COSMOS 2455 2.8 20:18:58 10° NW 20:25:03 90° E 20:27:59 32° SSE
ATLAS 3B R/B 3.4 20:19:04 10° WSW 20:26:11 62° NW 20:33:48 10° NE
SPOT 5 3.5 20:26:04 19° S 20:29:47 59° W 20:34:58 10° NNW
MetOp-A 4.0 20:30:40 36° ENE 20:30:56 37° ENE 20:34:28 10° N
NOSS 8 (H) 4.3 20:27:58 10° NW 20:31:06 84° NE 20:31:30 67° ESE
NOSS 8 (E) 4.5 20:28:25 10° NW 20:31:33 70° SW 20:31:59 60° S
Cosmos 405 Rocket 2.5 20:33:26 62° ESE 20:33:40 64° E 20:37:21 10° NNE
Cosmos 1898 Rocket 4.0 20:29:24 10° NNW 20:34:29 47° ENE 20:36:04 36° ESE
Cosmos 2297 Rocket 2.5 20:32:19 10° NW 20:37:54 61° WSW 20:40:35 30° S
CZ-4C R/B 3.0 20:31:17 10° NW 20:38:18 80° NE 20:42:37 32° SE
Spot 2 Rocket 3.4 20:36:25 37° SSE 20:38:27 90° E 20:43:32 10° NNW
BlueWalker 3 1.9 20:35:13 10° WSW 20:39:03 83° NNW 20:40:37 34° ENE
USA 81 4.3 20:38:46 42° SE 20:40:00 50° E 20:45:05 10° NNE
ARIANE 5 R/B 4.3 20:39:49 20° ENE 20:40:23 20° ENE 20:43:39 10° NNE
Terra 1.8 20:40:08 38° S 20:41:54 77° WSW 20:46:40 10° NNW
Cosmos 1656 4.0 20:38:25 10° SW 20:43:58 67° WNW 20:49:28 10° NNE
Cosmos 1455 Rocket 2.9 20:46:45 51° S 20:47:51 85° E 20:52:16 10° N
Okean 1 Rocket 4.2 20:44:01 10° SSW 20:48:15 43° WNW 20:52:32 10° N
Spot 1 4.1 20:43:46 10° NNE 20:48:25 66° ESE 20:49:03 57° SSE
Iridium 4 Rocket 4.4 20:44:01 12° SSW 20:49:04 52° W 20:54:47 10° N
USA 245 4.3 20:46:54 29° SSW 20:49:19 55° WSW 20:53:38 10° NNW
ATLAS 5 CENTAUR R/B 4.0 20:47:21 10° WNW 20:49:59 19° NNW 20:52:53 10° NNE
Cosmos 332 Rocket 4.2 20:45:31 10° NNW 20:50:16 55° WSW 20:51:53 37° SSW
Cosmos 1459 Rocket 4.3 20:44:33 10° N 20:50:26 49° ENE 20:52:04 40° ESE
Cosmos 2219 3.3 20:47:20 10° NNW 20:52:58 62° ENE 20:54:33 45° ESE
Ariane Rocket 3.3 20:56:30 37° SSW 20:58:20 61° WSW 21:03:21 10° NNW
Cosmos 1437 Rocket 3.1 20:56:06 10° NNW 20:59:57 57° W 21:00:22 53° SW
Cosmos 1763 Rocket 3.5 20:57:45 24° SSW 21:00:49 80° WNW 21:05:59 10° NNE
Cosmos 2263 Rocket 2.5 20:59:18 10° NNW 21:04:49 53° NE 21:06:06 44° E
Cosmos 44 3.8 21:00:38 10° SW 21:06:01 66° NW 21:11:19 10° NE
USA 267 4.2 21:02:52 10° ENE 21:09:04 47° N 21:15:16 10° W
ARGOS Delta rocket 4.2 21:08:36 46° S 21:10:12 72° W 21:15:41 10° NNW
Cosmos 2082 3.9 21:05:44 10° NNW 21:11:19 58° ENE 21:12:29 48° E
Cosmos 2173 Rocket 4.0 21:08:55 10° N 21:15:21 78° E 21:17:01 52° SSE
NOSS 3-2 (A) 4.2 21:09:09 10° NW 21:16:17 64° NE 21:19:58 35° ESE
Aureole 1 Rocket 4.0 21:14:05 10° NW 21:15:56 29° WNW 21:15:56 29° WNW
Meteor 2-3 Rocket 3.8 21:13:10 10° N 21:18:50 64° ENE 21:19:41 57° ESE
Cosmos 540 Rocket 3.5 21:18:45 40° SW 21:20:33 74° WNW 21:25:42 10° NNE
Cosmos 1606 4.2 21:23:39 27° NNE 21:23:39 27° NNE 21:25:30 10° NNE
MOS 1 Rocket 3.5 21:25:22 54° WSW 21:25:33 54° W 21:29:52 10° NNW
Cosmos 2058 3.5 21:22:40 10° NNW 21:26:27 50° W 21:26:27 50° W
Meteor 2-15 4.3 21:22:42 10° N 21:28:52 78° E 21:29:59 61° SSE
Cosmos 1626 Rocket 3.6 21:24:52 10° NNW 21:29:06 77° WNW 21:29:06 77° WNW
Cosmos 372 Rocket 3.9 21:26:29 10° NNW 21:31:44 77° WSW 21:32:09 72° SSW
Meteor 2-15 Rocket 4.4 21:26:03 10° N 21:32:09 64° ENE 21:33:02 57° ESE
Cosmos 468 Rocket 4.3 21:31:31 37° SW 21:33:26 63° WNW 21:38:39 10° NNE
Cosmos 1864 Rocket 4.4 21:28:35 10° N 21:34:46 72° E 21:35:41 62° SE
Cosmos 1802 Rocket 3.9 21:31:31 10° N 21:37:50 84° E 21:38:59 62° SSE
SL-16 R/B 4.1 21:41:08 16° ENE 21:41:08 16° ENE 21:43:02 10° NE
CENTAUR R/B 3.2 21:33:31 10° NW 21:41:44 84° SW 21:44:48 48° SSE
Landsat 5 4.5 21:38:42 10° N 21:42:42 41° WNW 21:43:13 39° W
Cosmos 1869 4.3 21:43:56 41° N 21:43:56 41° N 21:46:35 10° N
Cosmos 841 Rocket 3.4 21:43:35 78° ENE 21:43:35 78° ENE 21:48:29 10° NNE
Cosmos 2016 Rocket 3.8 21:38:59 10° N 21:45:07 80° E 21:45:55 68° SE
ATLAS CENTAUR R/B 2.8 21:42:50 10° NW 21:45:04 28° WNW 21:45:04 28° WNW
Intercosmos 25 4.4 21:44:11 10° NNW 21:48:13 42° WNW 21:48:13 42° WNW
Cosmos 1544 Rocket 4.0 21:49:27 56° NW 21:49:27 56° NW 21:53:24 10° N
Cosmos 1844 Rocket 4.0 21:44:13 10° NNW 21:49:09 30° NE 21:50:30 27° ENE
USA 229 DEB 4.4 21:45:50 10° WSW 21:51:54 49° NW 21:58:39 10° NE
USA 229 4.4 21:45:55 10° WSW 21:52:00 49° NW 21:58:45 10° NE
Cosmos 2100 Rocket 4.4 21:46:32 10° NNW 21:52:45 57° W 21:54:16 46° SW
H-2A R/B 3.6 21:54:16 36° N 21:54:16 36° N 21:56:41 10° N
Cosmos 2227 Rocket 3.4 21:48:26 10° NW 21:53:19 30° WSW 21:54:10 29° WSW
Cosmos 1980 Rocket 2.0 21:55:13 78° SW 21:55:37 88° WNW 22:01:19 10° NNE
Cosmos 967 Rocket 4.3 21:53:28 10° NW 21:59:59 88° NE 22:00:44 72° SE
Cosmos 1937 Rocket 4.1 21:58:43 10° NNW 22:03:46 47° WSW 22:03:46 47° WSW
Cosmos 1697 Rocket 3.8 22:00:32 16° WSW 22:04:41 42° NW 22:10:05 10° NNE
Okean 1-7 Rocket 4.3 22:00:17 10° NNW 22:04:09 51° WNW 22:04:09 51° WNW
Cosmos 2123 Rocket 4.0 22:05:46 63° SW 22:06:48 78° W 22:13:11 10° N
Cosmos 2151 4.4 22:03:51 10° N 22:06:35 31° NE 22:06:35 31° NE
Meteor 1-27 4.1 22:10:41 78° ENE 22:10:41 78° ENE 22:16:01 10° NNE
CZ-2C R/B 4.1 22:06:36 10° NNE 22:10:47 66° NNW 22:10:47 66° NNW
Cosmos 2228 4.1 22:14:50 41° NW 22:14:50 41° NW 22:18:09 10° N
ARIANE 5 R/B 3.5 22:17:17 47° WNW 22:17:17 47° WNW 22:20:50 10° NNW
BlueWalker 3 4.3 22:13:56 10° WNW 22:15:06 18° WNW 22:15:06 18° WNW
Terra 4.4 22:19:55 10° W 22:20:19 10° W 22:20:42 10° W
CZ-4C R/B 4.0 22:20:08 10° NW 22:26:35 32° WSW 22:27:43 31° SW
Cosmos 2227 4.2 22:22:11 10° NNW 22:27:45 82° NNE 22:27:45 82° NNE
Cosmos 2369 3.9 22:27:49 63° W 22:28:18 66° WNW 22:33:57 10° NNE
Lacrosse 4 Rocket 3.5 22:33:41 21° NE 22:33:41 21° NE 22:35:06 10° NE
NOSS 3-2 (C) 4.0 22:25:10 10° NW 22:32:32 84° NE 22:34:32 57° SE
H-2A R/B 4.1 22:29:10 10° NE 22:30:48 20° NE 22:30:48 20° NE
Cosmos 1725 Rocket 4.5 22:28:39 10° NNW 22:34:32 47° W 22:35:10 45° WSW
ALOS 2 3.6 22:35:59 45° N 22:35:59 45° N 22:39:07 10° N
Cosmos 2233 Rocket 4.0 22:28:56 10° NNW 22:35:03 68° W 22:35:19 67° WSW
Cosmos 2061 Rocket 4.3 22:35:13 10° NNW 22:41:29 56° W 22:42:00 54° WSW
Cosmos 1447 Rocket 4.3 22:42:34 86° E 22:42:34 86° E 22:48:45 10° N
Cosmos 1814 Rocket 4.3 22:45:04 62° NNE 22:45:04 62° NNE 22:49:22 10° NNE
Cosmos 1464 Rocket 4.4 22:38:22 10° N 22:44:37 53° ENE 22:44:59 52° E
Cosmos 2058 Rocket 4.5 22:47:28 33° NNE 22:47:28 33° NNE 22:50:00 10° NNE
Cosmos 2263 Rocket 3.5 22:43:42 10° NW 22:47:47 28° W 22:47:47 28° W
Cosmos 2360 Rocket 3.5 22:51:06 28° ENE 22:51:06 28° ENE 22:54:32 10° NE
USA 267 4.1 22:45:12 10° E 22:51:25 48° N 22:57:38 10° WNW
SL-19 R/B 4.3 22:46:11 10° NNE 22:51:47 83° NW 22:51:47 83° NW
Cosmos 909 Rocket 4.4 22:55:34 67° SSE 22:56:29 74° ESE 23:05:40 10° NE
Cosmos 1891 Rocket 4.4 22:53:04 10° N 22:59:17 88° ENE 22:59:17 88° ENE
Cosmos 1513 Rocket 4.3 22:53:35 10° N 22:59:38 82° ENE 22:59:38 82° ENE
Cosmos 2333 Rocket 3.4 23:03:47 31° ENE 23:03:47 31° ENE 23:07:27 10° NE
Cosmos 2322 Rocket 2.9 23:03:59 44° ENE 23:03:59 44° ENE 23:08:10 10° NE
Lacrosse 5 3.7 23:05:57 22° ENE 23:05:57 22° ENE 23:07:52 10° ENE
Cosmos 2219 Rocket 3.9 23:05:42 21° E 23:05:42 21° E 23:08:33 10° NE
Cosmos 2034 Rocket 4.3 23:00:42 10° N 23:06:44 52° ENE 23:07:00 52° E
Meteor 1-25 Rocket 4.5 23:05:50 10° N 23:11:03 60° NE 23:11:03 60° NE
Cosmos 1809 Rocket 4.4 23:21:05 83° WNW 23:21:05 83° WNW 23:27:15 10° N
SL-16 R/B 2.3 23:22:57 72° NNW 23:22:57 72° NNW 23:28:15 10° NNE
Cosmos 1844 3.9 23:18:30 10° NNW 23:23:28 64° WNW 23:23:28 64° WNW
CENTAUR R/B 4.4 23:25:04 10° WNW 23:31:50 27° WSW 23:31:56 27° WSW
USA 238 DEB 3.8 23:24:56 10° NW 23:32:16 78° SW 23:32:57 73° S
USA 238 3.8 23:25:02 10° NW 23:32:22 79° SW 23:33:05 73° S
Cosmos 1125 Rocket 4.4 23:28:04 10° NNW 23:31:49 42° WNW 23:31:49 42° WNW
Cosmos 1844 Rocket 3.3 23:27:53 10° NW 23:32:08 46° WNW 23:32:08 46° WNW
Cosmos 1980 Rocket 4.3 23:36:55 12° W 23:40:27 21° NW 23:44:42 10° N
Meteor 2-2 Rocket 4.3 23:48:58 76° ENE 23:48:58 76° ENE 23:54:40 10° NNE
Timation 2 Rocket 4.1 23:42:12 10° NW 23:48:19 65° W 23:48:19 65° W
Cosmos 1816 Rocket 4.3 23:51:35 84° WNW 23:51:35 84° WNW 23:57:44 10° N
